Regional Weather Roundup
Issued by NWS

Home | Current Version | Previous Version | Text Only | Print | Product List | Glossary On
Versions: 1 2 3 4 5 6 7 8 9 10 11 12 13 14 15 16 17 18 19 20 21 22 23 24 25 26 27 28 29 30 31 32 33 34 35 36 37 38 39 40 41 42 43 44 45 46 47 48 49 50
000
ASUS42 KKEY 141711
RWRKEY

FLORIDA KEYS REGIONAL WEATHER ROUNDUP
NATIONAL WEATHER SERVICE KEY WEST FLORIDA
1200 PM EST THU NOV 14 2019

...SOUTH FLORIDA AND THE KEYS...

CITY           SKY/WX    TMP DP  RH WIND       PRES   REMARKS
FORT MYERS     FAIR      84  68  58 E16G22    30.04F
SW REGIONAL AP FAIR      81  68  64 SE17      30.05F
NAPLES         FAIR      84  69  60 E17G25    30.03F
MIAMI          PTSUNNY   79  71  76 E14       30.05F
WEST KENDALL   CLOUDY    80  73  79 E18       30.05F
HOMESTEAD      LGT RAIN  74  71  89 CALM      30.04F FOG
MARATHON       PTSUNNY   85  74  69 VRB6      30.03F HX  92
BOCA CHICA NAS PTSUNNY   82  72  71 E9        30.04F
KEY WEST INTL  PTSUNNY   81  73  76 E9        30.04F

...INTERNATIONAL WEATHER...

CITY           SKY/WX    TMP DP  RH WIND       PRES   REMARKS
HAVANA         PTSUNNY   82  68  61 SE7       30.03F
VARADERO       PTSUNNY   84  70  61 E8        30.03F
CANCUN         CLOUDY    81  75  83 NE3       29.99F
COZUMEL        PTSUNNY   84  75  74 SE8       29.98F HX  92
KINGSTON       MOSUNNY   88  73  62 S8        29.94S HX  96
BELIZE CITY    MOSUNNY   81  73  78 W7        29.98F

...ADJACENT COASTAL WATERS...

STATION/POSITION TIME  SKY/WX   TEMP    WIND        PRES    WAVE
                                AIR SEA DIR/SP/G            HT/PER
                 (UTC)          (F)     (DEG/KT/KT) (MB)    (FT/S)
PULASKI SHOAL LI 1645            79     110/ 14/ 15 1017.1F
SAND KEY         1700            79      90/  9/ 11 1015.6
SOMBRERO KEY     1700            80     110/  6/  7   N/A
LONG KEY         1700            77                 1015.8
MOLASSES REEF    NOT AVBL
FOWEY ROCKS      1700            78 81  100/ 18/ 20 1017.4F
Buoy 42095       1700               83                N/A     3/ 8
Buoy 42097       1630               82                N/A     5/ 6

$$



USA.gov is the U.S. government's official web portal to all federal, state and local government web resources and services.